< < Back
Terminal Aerodrome Forecast


Current Version              Previous Versions:   1  2  3  4  5  6  7  8  9  

Terminal Aerodrome Forecast

950
FTUS42 KFFC 230500
TAFFTY
TAF
KFTY 230522Z 2306/2406 29005KT P6SM SKC
     FM230900 32006KT 4SM BR FEW012
     FM231200 33006KT P6SM SKC=

Latest METAR

210
SAUS70 KWBC 231400 RRA
MTRFTY
METAR KFTY 231353Z 31007KT 10SM CLR 17/08 A2997 RMK AO2 SLP143
T01670078


USA.gov is the U.S. government's official web portal to all federal, state and local government web resources and services.